Location: Freistadt
(48.5112°N, 14.5013°E)
Time: 12:42:32
(UTC+01:00)

THOR BURNER 2A DEB - Visible Passes

Search period start: 08 December 2023 00:00
Search period end: 18 December 2023 00:00
Orbit: 787 x 853 km, 99.0° (Epoch: 07 December)

Date Brightness Start Highest point End Pass type
(mag) Time Alt. Az. Time Alt. Az. Time Alt. Az.
10 Dec ? 07:00:45 10° E 07:04:15 18° NE 07:07:47 10° NNE visible
11 Dec ? 06:41:39 10° ENE 06:43:56 13° NE 06:46:13 10° NNE visible
15 Dec ? 06:57:44 10° E 07:01:03 16° NE 07:04:21 10° NNE visible
16 Dec ? 06:38:49 10° ENE 06:40:44 12° NE 06:42:38 10° NNE visible
